Location: Home
(42.5358°N, 72.7383°W)
Time: 11:32:08
(UTC-05:00)

Tiros 1 - Pass Details

Date: 30 November 2021
Orbit: 629 x 664 km, 48.4° (Epoch: 26 January)

Event Time Altitude Azimuth Distance (km) Brightness Sun altitude
Rises 23:43:48 0° 294° (WNW) 2,958 - -69.3°
Reaches altitude 10° 23:46:10 10° 299° (WNW) 2,053 - -69.3°
Maximum altitude 23:50:49 54° 17° (NNE) 797 - -69.2°
Drops below altitude 10° 23:55:30 10° 95° (E) 2,068 - -69.0°
Sets 23:57:54 0° 100° (E) 2,983 - -69.0°
